Overview Statistics Trail Chart Weather Telemetry Raw packets
 

This is the latest recevied weather packets stored in our database for station/object KD0MAC. If no packets are shown the sender has not sent any weather packets the latest 10 day(s).

<< 43 44 45 46 47 48 49 >>
Time Temp. Humidity Pressure Rain* Wind** Luminosity Snow
1788449077 30.56° C 47% 1010.8 hPa 0 mm - 156 W/m² -
1788448775 30° C 47% 1010.8 hPa 0 mm - 349 W/m² -
1788448725 30° C 47% 1010.8 hPa 0 mm - 349 W/m² -
1788448476 29.44° C 49% 1010.8 hPa 0 mm - 254 W/m² -
1788448425 29.44° C 49% 1010.8 hPa 0 mm - 254 W/m² -
1788448130 28.89° C 51% 1010.8 hPa 0 mm - 359 W/m² -
1788447877 28.89° C 51% 1010.8 hPa 0 mm - 107 W/m² -
1788447825 28.89° C 51% 1010.8 hPa 0 mm - 107 W/m² -
1788447576 29.44° C 50% 1010.8 hPa 0 mm - 319 W/m² -
1788447284 28.89° C 51% 1010.8 hPa 0 mm - 298 W/m² -
1788446976 28.33° C 52% 1010.8 hPa 0 mm - 295 W/m² -
1788446676 28.89° C 52% 1010.8 hPa 0 mm - 260 W/m² -
1788446629 28.89° C 52% 1010.8 hPa 0 mm - 260 W/m² -
1788446375 28.89° C 52% 1010.8 hPa 0 mm - 238 W/m² -
1788446075 28.33° C 53% 1010.8 hPa 0 mm - 230 W/m² -
1788446041 28.33° C 53% 1010.8 hPa 0 mm - 230 W/m² -
1788445775 28.33° C 54% 1011.2 hPa 0 mm - 214 W/m² -
1788445726 28.33° C 54% 1011.2 hPa 0 mm - 214 W/m² -
1788445424 27.78° C 55% 1010.8 hPa 0 mm - 200 W/m² -
1788445125 27.78° C 55% 1011.2 hPa 0 mm - 192 W/m² -
1788444876 27.78° C 55% 1011.2 hPa 0 mm - 176 W/m² -
1788444825 27.78° C 55% 1011.2 hPa 0 mm - 176 W/m² -
1788444525 27.78° C 55% 1011.2 hPa 0 mm - 163 W/m² -
1788444226 27.22° C 56% 1011.2 hPa 0 mm - 155 W/m² -
1788443925 27.22° C 56% 1011.2 hPa 0 mm - 144 W/m² -

* Rain latest hour (hover to see other rain measurements)
** Current wind speed in m/s (hover to see current wind gust speed)